OBJECT F, 56748

Orbit data source: Space-Track

You're viewing an Uncataloged Satellite

Recently launched and/or uncataloged satellites may have evolving metadata. Metadata may include but not limited to: Owner, Maufacturer, Bus, Motor, and Mission.

OBJECT F, 56748 is a satellite owned by JUSTEK (KR) in SSO that was launched on Thu, 25 May 2023 UTC via an NURI launch vehicle from the Naro Space Center, South Korea (NSC). Unknown objects in Earth's orbit typically refer to objects detected orbiting the Earth but have not yet been identified or cataloged. These objects could be anything from previously untracked satellites, spent rocket stages, debris from satellite collisions, or even natural meteoroids temporarily captured by Earth's gravity.

Loading next visibility...
Identifier
56748, 2023-072F
Orbit
SSO
Last TLE update
6 hours ago
Origin
Flag of KRJUSTEK (KR / SKOR)
Manufacturer
JUSTEK
Mission
Operational Commercial Imaging
Bus & Motor
CUBESAT 3U, Unknown motor
Mass
3.2 kg wet, 3.2 kg dry
Launch date (UTC)
2023-05-25 (2 years ago)
Launch vehicle
NURI
Launch site
Naro Space Center, South Korea (NSC)
Object type
Unknown
Shape & HBR
Box, 0.3 m
Radar Cross Section
0.035 m², Medium (>0.1 m² and < 1m²)

Expand to show TLE details & history

TLE from 6 hours ago
0 OBJECT F
1 56748U 23072F   25127.51363306  .00009069  00000-0  38974-3 0  9996
2 56748  97.5272 317.5638 0007047  18.9219 341.2277 15.22877949107878
Epoch: 2025-05-07T12:19Z
Definitive object data (Epoch: 2025-05-07T12:19:37.896Z)
Latitude
-0.00011°
Longitude
-92.94148°
Altitude
495.668 km
Speed
7.619 km/s
True Right ascension
21h 10m 15s
True Declination
0° 00' 00"
Sunlit
Object was in daylight at TLE epoch
Visualization TLE readout
Latitude
-68.74057°
Longitude
-72.95081°
Altitude
522.814 km
Speed
7.601 km/s
Apparent Right ascension
16h 25m 49s
Apparent Declination
-68° 21' 02"
Sunlit
Object is in daylight
Visualization observer readout
Local Sidereal Time
02:22:37
Azimuth
200.343° SSW
Elevation
-57.082°
Doppler factor
1
Orbital elements
Apogee altitude
498.975 km
Perigee altitude
489.289 km
Semi-major axis
6,872.269 km
Eccentricity
0.0007047
Inclination
97.5272°
RAAN
317.5638°
Arg. of periapsis
18.9219°
True anomaly
341.20169°
Mean anomaly
341.2277°
Eccentric anomaly
341.2147°
Mean motion
3.80972 °/min
BSTAR
0.00038974
Orbital period
94.5 mins
Loading maneuver chart data...
Loading SW <> Apogee altitude chart data...
Loading historical data...
Loading historical data...
Loading historical data...
Loading historical data...
Loading historical data...
Loading historical data...
Loading historical data...

OBJECT F Visibility forecast

Observer location: undefined°, undefined°

Span
Click to sort rows by Start time (UTC) header in descending order
Start Az.
Max El. time (UTC)
Max El. Az.
Max El.
End time (UTC)
End Az.
7 mins2025-05-08 01:29:43.075Z12.33° NNE2025-05-08 01:33:43.075Z189.936° SSW42.344°2025-05-08 01:36:43.075Z192.709° SSW
5 mins2025-05-08 12:07:43.075Z125.396° SE2025-05-08 12:09:43.075Z78.1° E27.373°2025-05-08 12:12:43.075Z11.793° NNE
|